• In Belgium
  • List of Countries
  • For 7 days
  • Water Temperature
  • Satellite Maps
  • Weather Map
  • Weather Widgets
  • user-avatar
    Login

    Hourly Weather Lytkarino

    Today, 17 October, Wednesday

    Time Temperature Precipitation Wind Pressure Humidity
    00:00 +10°C° 0 mm 3 mps 753 mmHg 79%
    01:00 +10°C° 0 mm 3 mps 753 mmHg 81%
    02:00 +9°C° 0 mm 3 mps 753 mmHg 83%
    03:00 +8°C° 0 mm 2 mps 754 mmHg 88%
    04:00 +8°C° 0 mm 2 mps 754 mmHg 89%
    05:00 +8°C° 0 mm 2 mps 754 mmHg 90%
    06:00 +8°C° 0 mm 2 mps 754 mmHg 91%
    07:00 +8°C° 0 mm 2 mps 754 mmHg 88%
    08:00 +9°C° 0 mm 2 mps 754 mmHg 85%
    09:00 +10°C° 0 mm 2 mps 754 mmHg 82%
    10:00 +12°C° 0 mm 2 mps 754 mmHg 76%
    11:00 +14°C° 0 mm 2 mps 754 mmHg 70%
    12:00 +15°C° 0 mm 2 mps 754 mmHg 65%
    13:00 +16°C° 0 mm 1 mps 754 mmHg 63%
    14:00 +16°C° 0 mm 1 mps 754 mmHg 62%
    15:00 +18°C° 0 mm 1 mps 754 mmHg 60%
    16:00 +15°C° 0 mm 1 mps 754 mmHg 67%
    17:00 +14°C° 0 mm 1 mps 754 mmHg 73%
    18:00 +12°C° 0 mm 1 mps 754 mmHg 79%
    19:00 +12°C° 0 mm 1 mps 754 mmHg 81%
    20:00 +11°C° 0 mm 1 mps 754 mmHg 84%
    21:00 +11°C° 0 mm 1 mps 754 mmHg 86%
    22:00 +11°C° 0 mm 1 mps 754 mmHg 87%
    23:00 +10°C° 0 mm 1 mps 754 mmHg 88%

    Tomorrow, 18 October, Thursday

    Time Temperature Precipitation Wind Pressure Humidity
    00:00 +10°C° 0 mm 1 mps 754 mmHg 89%
    01:00 +10°C° 0 mm 1 mps 754 mmHg 90%
    02:00 +9°C° 0 mm 1 mps 754 mmHg 90%
    03:00 +9°C° 0 mm 1 mps 754 mmHg 91%
    04:00 +8°C° 0 mm 2 mps 754 mmHg 91%
    05:00 +8°C° 0 mm 2 mps 754 mmHg 92%
    06:00 +7°C° 0 mm 2 mps 753 mmHg 92%
    07:00 +8°C° 0 mm 2 mps 753 mmHg 90%
    08:00 +9°C° 0 mm 2 mps 753 mmHg 87%
    09:00 +9°C° 0 mm 2 mps 753 mmHg 84%
    10:00 +12°C° 0 mm 2 mps 753 mmHg 79%
    11:00 +13°C° 0 mm 2 mps 753 mmHg 73%
    12:00 +14°C° 0 mm 3 mps 752 mmHg 67%
    13:00 +14°C° 0 mm 3 mps 752 mmHg 65%
    14:00 +16°C° 0 mm 3 mps 752 mmHg 64%
    15:00 +17°C° 0 mm 3 mps 752 mmHg 62%
    16:00 +14°C° 0 mm 3 mps 751 mmHg 69%
    17:00 +14°C° 0 mm 2 mps 751 mmHg 76%
    18:00 +12°C° 0 mm 2 mps 751 mmHg 83%
    19:00 +12°C° 0 mm 2 mps 750 mmHg 85%
    20:00 +12°C° 0 mm 2 mps 750 mmHg 87%
    21:00 +10°C° 0 mm 2 mps 750 mmHg 90%
    22:00 +10°C° 0 mm 2 mps 750 mmHg 90%
    23:00 +10°C° 0 mm 2 mps 750 mmHg 91%

    Day after tomorrow, 19 October, Friday

    Time Temperature Precipitation Wind Pressure Humidity
    00:00 +10°C° 0 mm 2 mps 750 mmHg 92%
    01:00 +10°C° 0 mm 2 mps 749 mmHg 92%
    02:00 +10°C° 0 mm 2 mps 749 mmHg 92%
    03:00 +10°C° 0 mm 3 mps 749 mmHg 93%
    04:00 +10°C° 0 mm 3 mps 748 mmHg 93%
    05:00 +10°C° 0 mm 3 mps 748 mmHg 93%
    06:00 +10°C° 0 mm 3 mps 748 mmHg 94%
    07:00 +10°C° 0 mm 3 mps 748 mmHg 92%
    08:00 +11°C° 0 mm 3 mps 748 mmHg 90%
    09:00 +11°C° 0 mm 3 mps 747 mmHg 87%
    10:00 +13°C° 0 mm 3 mps 747 mmHg 83%
    11:00 +14°C° 0 mm 4 mps 747 mmHg 78%
    12:00 +15°C° 0 mm 4 mps 747 mmHg 73%
    13:00 +15°C° 0 mm 4 mps 747 mmHg 71%
    14:00 +17°C° 0 mm 4 mps 747 mmHg 70%
    15:00 +17°C° 0 mm 3 mps 747 mmHg 69%
    16:00 +16°C° 0 mm 3 mps 747 mmHg 73%
    17:00 +14°C° 0 mm 3 mps 747 mmHg 77%
    18:00 +14°C° 0 mm 2 mps 747 mmHg 82%
    19:00 +12°C° 0.1 mm 3 mps 747 mmHg 83%
    20:00 +12°C° 0.1 mm 3 mps 747 mmHg 83%
    21:00 +11°C° 0.1 mm 3 mps 747 mmHg 84%
    22:00 +10°C° 0.1 mm 3 mps 748 mmHg 84%
    23:00 +10°C° 0.1 mm 3 mps 748 mmHg 84%

    20 October, Saturday

    Time Temperature Precipitation Wind Pressure Humidity
    00:00 +9°C° 0.1 mm 3 mps 748 mmHg 83%
    01:00 +8°C° 0 mm 3 mps 748 mmHg 84%
    02:00 +7°C° 0 mm 2 mps 748 mmHg 85%
    03:00 +7°C° 0 mm 2 mps 749 mmHg 86%
    04:00 +6°C° 0 mm 2 mps 749 mmHg 88%
    05:00 +6°C° 0 mm 2 mps 749 mmHg 90%
    06:00 +5°C° 0 mm 2 mps 749 mmHg 91%
    07:00 +5°C° 0 mm 2 mps 749 mmHg 89%
    08:00 +5°C° 0 mm 3 mps 750 mmHg 86%
    09:00 +5°C° 0 mm 3 mps 750 mmHg 84%
    10:00 +7°C° 0 mm 3 mps 750 mmHg 79%
    11:00 +8°C° 0 mm 3 mps 750 mmHg 73%
    12:00 +9°C° 0 mm 3 mps 751 mmHg 68%
    13:00 +9°C° 0 mm 3 mps 751 mmHg 68%
    14:00 +9°C° 0 mm 3 mps 751 mmHg 67%
    15:00 +10°C° 0 mm 3 mps 751 mmHg 67%
    16:00 +8°C° 0 mm 3 mps 751 mmHg 72%
    17:00 +7°C° 0 mm 2 mps 751 mmHg 76%
    18:00 +6°C° 0 mm 2 mps 751 mmHg 81%
    19:00 +6°C° 0 mm 2 mps 751 mmHg 82%
    20:00 +6°C° 0 mm 2 mps 751 mmHg 83%
    21:00 +7°C° 0 mm 1 mps 751 mmHg 84%
    22:00 +7°C° 0 mm 1 mps 751 mmHg 83%
    23:00 +7°C° 0 mm 1 mps 752 mmHg 82%

    21 October, Sunday

    Time Temperature Precipitation Wind Pressure Humidity
    00:00 +6°C° 0 mm 0 mps 752 mmHg 81%
    01:00 +6°C° 0 mm 0 mps 752 mmHg 80%
    02:00 +6°C° 0 mm 0 mps 752 mmHg 79%
    03:00 +6°C° 0 mm 0 mps 752 mmHg 78%
    04:00 +6°C° 0 mm 0 mps 752 mmHg 78%
    05:00 +6°C° 0 mm 0 mps 751 mmHg 77%
    06:00 +6°C° 0 mm 0 mps 751 mmHg 77%
    07:00 +6°C° 0 mm 0 mps 752 mmHg 76%
    08:00 +6°C° 0 mm 0 mps 752 mmHg 75%
    09:00 +6°C° 0 mm 0 mps 752 mmHg 74%
    10:00 +6°C° 0 mm 0 mps 752 mmHg 72%
    11:00 +7°C° 0 mm 0 mps 752 mmHg 70%
    12:00 +7°C° 0 mm 0 mps 753 mmHg 68%
    13:00 +7°C° 0 mm 0 mps 753 mmHg 67%
    14:00 +7°C° 0 mm 0 mps 753 mmHg 66%
    15:00 +7°C° 0 mm 0 mps 753 mmHg 65%
    16:00 +7°C° 0 mm 0 mps 753 mmHg 67%
    17:00 +7°C° 0 mm 0 mps 753 mmHg 69%
    18:00 +6°C° 0 mm 0 mps 753 mmHg 70%
    19:00 +6°C° 0 mm 0 mps 753 mmHg 71%
    20:00 +6°C° 0 mm 0 mps 753 mmHg 72%
    21:00 +5°C° 0 mm 0 mps 753 mmHg 72%
    22:00 +6°C° 0 mm 1 mps 754 mmHg 75%
    23:00 +5°C° 0 mm 1 mps 754 mmHg 78%

    22 October, Monday

    Time Temperature Precipitation Wind Pressure Humidity
    00:00 +5°C° 0 mm 1 mps 754 mmHg 80%
    01:00 +4°C° 0 mm 1 mps 754 mmHg 82%
    02:00 +4°C° 0 mm 1 mps 754 mmHg 84%
    03:00 +4°C° 0 mm 1 mps 754 mmHg 85%
    04:00 +3°C° 0 mm 1 mps 753 mmHg 86%
    05:00 +3°C° 0 mm 1 mps 753 mmHg 88%
    06:00 +3°C° 0 mm 1 mps 753 mmHg 89%
    07:00 +3°C° 0 mm 2 mps 753 mmHg 86%
    08:00 +3°C° 0 mm 2 mps 753 mmHg 84%
    09:00 +4°C° 0 mm 2 mps 752 mmHg 81%
    10:00 +4°C° 0 mm 3 mps 752 mmHg 76%
    11:00 +5°C° 0 mm 3 mps 752 mmHg 71%
    12:00 +6°C° 0 mm 4 mps 751 mmHg 66%
    13:00 +7°C° 0 mm 4 mps 751 mmHg 65%
    14:00 +7°C° 0 mm 4 mps 750 mmHg 63%
    15:00 +8°C° 0 mm 4 mps 750 mmHg 62%
    16:00 +7°C° 0 mm 4 mps 749 mmHg 66%
    17:00 +6°C° 0 mm 4 mps 749 mmHg 71%
    18:00 +5°C° 0 mm 3 mps 748 mmHg 76%
    19:00 +4°C° 0 mm 4 mps 748 mmHg 77%
    20:00 +4°C° 0 mm 4 mps 748 mmHg 78%
    21:00 +4°C° 0 mm 4 mps 748 mmHg 79%
    22:00 +4°C° 0 mm 4 mps 747 mmHg 80%
    23:00 +3°C° 0 mm 4 mps 747 mmHg 82%
    Show more